Home   Weather   Edinburgh   Past weeks
Flag for United Kingdom

Past Weather in Edinburgh, Scotland, United Kingdom — Yesterday and Last 2 Weeks

Now
36 °F

Passing clouds.


Feels Like: 31 °F
Forecast: 33 / 37 °F
Wind: 6 mph from West

Location: Edinburgh Airport

Current Time: Dec 14, 2018 at 5:46:44 am

Latest Report: Dec 14, 2018 at 4:50 am


Visibility: N/A

Pressure: 30.18 "Hg

Humidity: 70%

Dew Point: 27 °F

Location of EdinburghLocation

Past Weather in Edinburgh — Graph

°F

Edinburgh Temperature Yesterday

Maximum temperature yesterday: 41 °F (at 7:20 am)
Minimum temperature yesterday: 34 °F (at 7:20 pm)
Average temperature yesterday: 38 °F

High & Low Weather Summary for the Past Weeks

 TemperatureHumidityPressure
High54 °F (Dec 6, 11:20 am)100% (Nov 29, 10:50 am)30.30 "Hg (Nov 29, 10:50 am)
Low25 °F (Dec 4, 4:50 am)61% (Dec 13, 7:50 am)28.85 "Hg (Nov 29, 11:20 am)
Average41 °F90%29.65 "Hg
* Reported Nov 29 4:20 am — Dec 14 4:20 am, Edinburgh. Weather by CustomWeather, © 2018

Note: Actual official high and low records may vary slightly from our data, if they occured in-between our weather recording intervals... More about our weather records

Advertising

Edinburgh Weather History for the Previous 24 Hours

Scroll right to see more
 ConditionsComfort  
Time TempWeatherWind HumidityBarometerVisibility
4:20 am
Fri, Dec 14
36 °FClear.6 mph70%30.15 "Hg10 mi
3:50 am36 °FPassing clouds.6 mph75%30.15 "HgN/A
3:20 am36 °FClear.3 mph75%30.15 "Hg10 mi
2:50 am36 °FClear.3 mph75%30.18 "Hg10 mi
2:20 am36 °FPassing clouds.5 mph75%30.18 "HgN/A
1:50 am36 °FClear.3 mph75%30.18 "Hg10 mi
1:20 am37 °FClear.3 mph70%30.15 "Hg10 mi
12:50 am37 °FPassing clouds.5 mph70%30.15 "HgN/A
12:20 am37 °FClear.3 mph70%30.15 "Hg10 mi
11:50 pm
Thu, Dec 13
39 °FPassing clouds.8 mph70%30.15 "HgN/A
11:20 pm37 °FClear.13 mph75%30.15 "Hg10 mi
10:50 pm37 °FClear.12 mph75%30.15 "Hg10 mi
10:20 pm37 °FClear.15 mph75%30.15 "Hg10 mi
9:50 pm37 °FClear.16 mph75%30.15 "Hg10 mi
9:20 pm37 °FPassing clouds.7 mph70%30.15 "HgN/A
8:50 pm37 °FClear.9 mph75%30.15 "Hg10 mi
8:20 pm36 °FPassing clouds.9 mph75%30.15 "HgN/A
7:50 pm36 °FPassing clouds.9 mph81%30.15 "HgN/A
7:20 pm34 °FClear.8 mph81%30.12 "Hg10 mi
6:50 pm36 °FPassing clouds.5 mph75%30.12 "HgN/A
6:20 pm36 °FClear.6 mph75%30.12 "Hg10 mi
5:50 pm37 °FPassing clouds.7 mph70%30.12 "HgN/A
5:20 pm37 °FPassing clouds.2 mph70%30.12 "HgN/A
4:50 pm39 °FPassing clouds.8 mph65%30.09 "HgN/A
4:20 pm37 °FPassing clouds.7 mph70%30.09 "HgN/A
3:50 pm39 °FPassing clouds.8 mph65%30.09 "HgN/A
3:20 pm39 °FPassing clouds.17 mph65%30.07 "HgN/A
2:50 pm39 °FPassing clouds.14 mph65%30.07 "HgN/A
2:20 pm39 °FPassing clouds.8 mph65%30.07 "HgN/A
1:50 pm39 °FPassing clouds.6 mph65%30.07 "HgN/A
1:20 pm39 °FPassing clouds.8 mph65%30.07 "HgN/A
12:50 pm39 °FPassing clouds.9 mph65%30.07 "HgN/A
12:20 pm39 °FPassing clouds.12 mph65%30.07 "HgN/A
11:50 am39 °FPassing clouds.13 mph65%30.07 "HgN/A
11:20 am39 °FPassing clouds.13 mph65%30.07 "HgN/A
10:50 am39 °FPassing clouds.14 mph65%30.07 "HgN/A
10:20 am39 °FScattered clouds.9 mph65%30.07 "HgN/A
9:50 am39 °FPassing clouds.12 mph65%30.07 "HgN/A
9:20 am39 °FPassing clouds.13 mph65%30.07 "HgN/A
8:50 am39 °FPassing clouds.16 mph65%30.07 "HgN/A
8:20 am39 °FPassing clouds.14 mph65%30.07 "HgN/A
7:50 am41 °FPassing clouds.7 mph61%30.04 "HgN/A
7:20 am41 °FPassing clouds.6 mph66%30.04 "HgN/A
6:50 am39 °FPassing clouds.8 mph70%30.04 "HgN/A
6:20 am39 °FPassing clouds.9 mph70%30.01 "HgN/A
5:50 am39 °FPassing clouds.9 mph70%30.01 "HgN/A
5:20 am39 °FPassing clouds.7 mph65%30.04 "HgN/A
Weather by CustomWeather, © 2018

See weather overview